ONEWEB-0049, 45154

Orbit data source: Space-Track

ONEWEB-0049, 45154 is a payload satellite owned by One Web (UK) in LEO that was launched on Thu, 06 Feb 2020 UTC via a SOYUZ-2-1B launch vehicle from the Tyuratam Missile And Space Complex (TTMTR). Payload-class satellites include a variety of spacecraft equipped with specific instruments for various scientific and technological missions. These include communications satellites like Starlink; space stations such as the ISS; scientific satellites like the Hubble; Earth observation satellites from companies like Planet Labs, Umbra, and HawkEye 360; GPS; miniature CubeSats for education and research; and military/defense satellites.

Loading next visibility...
Identifier
45154, 2020-008Z
Orbit
LEO
Last TLE update
9 hours ago
Origin
Manufacturer
One Web
Mission
Operational Commercial Communications
Bus & Motor
ARROW, Unknown motor
Mass
148 kg wet, ~140 kg dry
Launch date (UTC)
2020-02-06 (5 years ago)
Launch vehicle
SOYUZ-2-1B
Launch site
Tyuratam Missile And Space Complex (TTMTR)
Object type
Payload
Rocket body
Debris
Shape & HBR
Trap Box + 2 Pan, 5 m
Radar Cross Section
2.957 m², Large (>1 m²)

Expand to show TLE details & history

TLE from 9 hours ago
0 ONEWEB-0049
1 45154U 20008Z   25182.81839937 -.00000617  00000-0 -18044-2 0  9990
2 45154  87.8832 106.1610 0001629  65.3596 294.7701 13.10372456262141
Epoch: 2025-07-01T19:38Z
TLE epoch observation values (Epoch: 2025-07-01T19:38:29.705Z)
Latitude
-0.00002°
Longitude
-108.57117°
Altitude
1,224.087 km
Speed
7.243 km/s
True Right ascension
07h 04m 38s
True Declination
0° 00' 00"
Sunlit
Object was in daylight at epoch
Visualization orbit readout
Latitude
55.44132°
Longitude
-105.58892°
Altitude
1,229.75 km
Speed
7.245 km/s
Apparent Right ascension
05h 56m 46s
Apparent Declination
13° 57' 31"
Sunlit
Object is in daylight
Visualization observer readout
Local Sidereal Time
16:46:39
Azimuth
339.431° N
Elevation
-33.711°
Doppler factor
1
Orbital elements
Apogee altitude
1,220.076 km
Perigee altitude
1,217.601 km
Semi-major axis
7,596.975 km
Eccentricity
0.00016
Inclination
87.8832°
RAAN
106.161°
Arg. of periapsis
65.3596°
True anomaly
Unknown
Mean anomaly
294.7701°
Eccentric anomaly
Unknown
Mean motion
3.2778 °/min
Orbital period
109.83 mins
BSTAR
-0.0018044
Loading maneuver chart data...
Loading SW <> Apogee altitude chart data...
Loading historical data...
Loading historical data...
Loading historical data...
Loading historical data...
Loading historical data...
Loading historical data...
Loading historical data...

ONEWEB-0049 Visibility forecast

Observer location: undefined°, undefined°

Span
Click to sort rows by Start time (UTC) header in descending order
Start Az.
Max El. time (UTC)
Max El. Az.
Max El.
End time (UTC)
End Az.
8 mins2025-07-02 05:26:09.201Z38.574° NE2025-07-02 05:30:09.201Z73.4° E16.047°2025-07-02 05:34:09.201Z107.902° ESE
13 mins2025-07-02 07:15:09.201Z357.307° N2025-07-02 07:21:09.201Z239.786° WSW44.727°2025-07-02 07:28:09.201Z184.961° SSW
4 mins2025-07-02 09:08:09.201Z303.352° NW2025-07-02 09:10:09.201Z285.98° WNW13.095°2025-07-02 09:12:09.201Z269.204° W
7 mins2025-07-02 17:48:09.201Z100.517° ESE2025-07-02 17:51:09.201Z71.46° E18.159°2025-07-02 17:55:09.201Z36.022° NE
13 mins2025-07-02 19:34:09.201Z187.753° SSW2025-07-02 19:40:09.201Z277.017° WNW43.957°2025-07-02 19:47:09.201Z356.958° N
|